Orbital Elements at Epoch 2459000.5 (2020-May-31.0) TDB
Reference: JPL 11 (heliocentric ecliptic J2000)
Element | Value | Uncertainty (1-sigma) | Units |
e | .2711377021446665 | 5.2009e-08 | |
a | 2.989539781381031 | 2.6947e-08 | au |
q | 2.178962834587309 | 1.5143e-07 | au |
i | 3.672049090247948 | 7.5948e-06 | deg |
node | 82.70159242137392 | 0.0001149 | deg |
peri | 161.1548445821531 | 0.00011628 | deg |
M | 227.7117561564608 | 1.7432e-05 | deg |
tp | 2459694.283045690387 (2022-Apr-24.78304569) | 9.5799e-05 | TDB |
period | 1888.012790795977 5.17 | 2.5527e-05 6.989e-08 | d yr |
n | .1906766743080303 | 2.578e-09 | deg/d |
Q | 3.800116728174752 | 3.4253e-08 | au |
|
| | Orbit Determination Parameters
Additional Information
|